Location: Limerick
(52.6800°N, 8.6400°W)
Time: 10:57:19
(UTC+00:00)

ISS - All Passes

Search period start: 17 January 2017 00:00
Search period end: 27 January 2017 00:00
Orbit: 400 x 410 km, 51.6° (Epoch: 17 January)

Date Brightness Start Highest point End Pass type
(mag) Time Alt. Az. Time Alt. Az. Time Alt. Az.
17 Jan - 00:02:10 10° SSE 00:02:45 10° SE 00:03:20 10° SE night (unlit)
17 Jan - 01:35:30 10° SW 01:38:32 37° SSE 01:41:35 10° E night (unlit)
17 Jan - 03:11:35 10° W 03:14:50 74° S 03:18:05 10° E night (unlit)
17 Jan - 04:48:00 10° W 04:51:12 53° SSW 04:54:23 10° ESE visible
17 Jan - 06:24:56 10° W 06:27:13 18° SW 06:29:29 10° S visible
18 Jan - 00:43:41 10° SSW 00:46:29 27° SSE 00:49:17 10° E night (unlit)
18 Jan - 02:19:25 10° WSW 02:22:39 67° S 02:25:54 10° E night (unlit)
18 Jan - 03:55:49 10° W 03:59:04 66° S 04:02:17 10° ESE night (unlit)
18 Jan - 05:32:27 10° W 05:35:13 25° SSW 05:37:58 10° SSE visible
18 Jan - 23:52:07 10° SSW 23:54:28 19° SE 23:56:49 10° E night (unlit)
19 Jan - 01:27:18 10° WSW 01:30:30 55° SSE 01:33:41 10° E night (unlit)
19 Jan - 03:03:37 10° W 03:06:52 74° S 03:10:07 10° E night (unlit)
19 Jan - 04:40:07 10° W 04:43:08 36° SSW 04:46:10 10° SE visible
19 Jan - 23:01:05 10° SSE 23:02:29 12° SE 23:03:54 10° ESE night (unlit)
20 Jan - 00:35:15 10° SW 00:38:21 42° SSE 00:41:27 10° E night (unlit)
20 Jan - 02:11:24 10° W 02:14:40 75° S 02:17:55 10° E night (unlit)
20 Jan - 03:47:52 10° W 03:51:01 48° SSW 03:54:10 10° ESE night (unlit)
20 Jan - 05:24:58 10° WSW 05:26:58 15° SW 05:28:57 10° S visible
20 Jan - 23:43:19 10° SW 23:46:14 30° SSE 23:49:09 10° E night (unlit)
21 Jan - 01:19:12 10° WSW 01:22:28 70° S 01:25:42 10° E night (unlit)
21 Jan - 02:55:37 10° W 02:58:51 61° SSW 03:02:03 10° ESE night (unlit)
21 Jan - 04:32:19 10° W 04:34:57 22° SSW 04:37:33 10° SSE night (unlit)
21 Jan - 22:51:36 10° SSW 22:54:09 21° SSE 22:56:42 10° E night (unlit)
22 Jan - 00:27:01 10° WSW 00:30:14 59° SSE 00:33:28 10° E night (unlit)
22 Jan - 02:03:22 10° W 02:06:37 71° S 02:09:52 10° ESE night (unlit)
22 Jan - 03:39:54 10° W 03:42:51 32° SSW 03:45:48 10° SE night (unlit)
22 Jan - 22:00:16 10° S 22:02:07 14° SE 22:03:59 10° ESE night (unlit)
22 Jan - 23:34:54 10° SW 23:38:02 46° SSE 23:41:12 10° E night (unlit)
23 Jan - 01:11:07 10° W 01:14:23 76° S 01:17:38 10° E night (unlit)
23 Jan - 02:47:35 10° W 02:50:42 44° SSW 02:53:49 10° SE night (unlit)
23 Jan - 04:24:58 10° WSW 04:26:35 13° SW 04:28:12 10° S night (unlit)
23 Jan - 22:42:52 10° SW 22:45:52 34° SSE 22:48:52 10° E night (unlit)
24 Jan - 00:18:52 10° W 00:22:07 73° S 00:25:23 10° E night (unlit)
24 Jan - 01:55:18 10° W 01:58:31 57° SSW 02:01:42 10° ESE night (unlit)
24 Jan - 03:32:06 10° W 03:34:33 20° SSW 03:37:00 10° SSE night (unlit)
24 Jan - 21:51:02 10° SSW 21:53:44 24° SSE 21:56:27 10° E night (unlit)
24 Jan - 23:26:38 10° WSW 23:29:52 64° S 23:33:06 10° E night (unlit)
25 Jan - 01:03:01 10° W 01:06:15 68° S 01:09:30 10° ESE night (unlit)
25 Jan - 02:39:35 10° W 02:42:27 28° SSW 02:45:18 10° SSE night (unlit)
25 Jan - 20:59:29 10° S 21:01:39 17° SE 21:03:49 10° ESE night (unlit)
25 Jan - 22:34:26 10° WSW 22:37:37 51° SSE 22:40:49 10° E night (unlit)
26 Jan - 00:10:43 10° W 00:13:59 75° S 00:17:14 10° E night (unlit)
26 Jan - 01:47:12 10° W 01:50:17 39° SSW 01:53:20 10° SE night (unlit)
26 Jan - 03:25:02 10° WSW 03:26:05 11° SW 03:27:09 10° SSW night (unlit)
26 Jan - 20:08:45 10° SSE 20:09:36 11° SE 20:10:28 10° ESE night (unlit)
26 Jan - 21:42:21 10° SW 21:45:24 38° SSE 21:48:28 10° E night (unlit)
26 Jan - 23:18:25 10° W 23:21:41 75° S 23:24:57 10° E night (unlit)
